FW9113 Weather Reports


Display with metric or nautical units.
time (UTC)temp
F
wind
direction
speed
MPH
gust
MPH
rain 1hr
in
rain 24hr
in
rain mn
in
humidity
%
barometer
mb
20260502181142 72 282 0.0 0.0 0.00 0.00 0.00 64 1013.3
20260502180639 73 282 0.0 0.0 0.00 0.00 0.00 64 1013.3
20260502180137 73 282 0.0 0.0 0.00 0.00 0.00 64 1013.2
20260502170130 74 209 0.0 2.0 0.00 0.00 0.00 59 1013.5
20260502164129 75 221 1.0 2.0 0.00 0.00 0.00 58 1013.8
20260502163625 75 339 1.0 3.0 0.00 0.00 0.00 59 1013.9
20260502163125 75 321 1.0 4.0 0.00 0.00 0.00 59 1014.0
20260502162628 75 314 1.0 4.0 0.00 0.00 0.00 59 1014.1
20260502162421 75 153 2.0 4.0 0.00 0.00 0.00 58 1014.1
20260502161626 75 232 1.0 4.0 0.00 0.00 0.00 58 1014.2
20260502161417 76 266 1.0 3.0 0.00 0.00 0.00 58 1014.3
20260502160625 76 221 1.0 3.0 0.00 0.00 0.00 59 1014.3
20260502160417 76 332 1.0 3.0 0.00 0.00 0.00 58 1014.4
20260502152119 76 294 1.0 4.0 0.00 0.00 0.00 57 1014.9
20260502151617 76 234 1.0 3.0 0.00 0.00 0.00 58 1014.9
20260502151118 76 300 2.0 4.0 0.00 0.00 0.00 58 1015.0
20260502150619 76 248 2.0 4.0 0.00 0.00 0.00 58 1015.0
20260502150120 76 205 1.0 4.0 0.00 0.00 0.00 58 1015.1
20260502140112 76 298 2.0 6.0 0.00 0.00 0.00 58 1015.7
20260502130547 76 328 2.0 3.0 0.00 0.00 0.00 58 1016.2
20260502123544 74 151 2.0 4.0 0.00 0.00 0.00 60 1016.5
20260502123040 74 232 2.0 4.0 0.00 0.00 0.00 60 1016.5
20260502122538 73 218 2.0 5.0 0.00 0.00 0.00 61 1016.6
20260502122039 73 235 3.0 5.0 0.00 0.00 0.00 61 1016.6
20260502121539 74 227 2.0 4.0 0.00 0.00 0.00 59 1016.7
20260502121038 74 210 2.0 5.0 0.00 0.00 0.00 59 1016.6
20260502120538 74 243 3.0 6.0 0.00 0.00 0.00 60 1016.7
20260502115537 74 212 2.0 6.0 0.00 0.00 0.00 58 1016.8
20260502115036 75 299 2.0 5.0 0.00 0.00 0.00 58 1016.8
20260502114537 75 243 2.0 4.0 0.00 0.00 0.00 58 1016.9
20260502114033 74 215 2.0 4.0 0.00 0.00 0.00 59 1016.9
20260502113532 74 114 2.0 6.0 0.00 0.00 0.00 57 1017.0
20260502113030 74 174 2.0 6.0 0.00 0.00 0.00 58 1017.0
20260502112531 74 229 1.0 5.0 0.00 0.00 0.00 57 1017.0
20260502112030 75 199 1.0 5.0 0.00 0.00 0.00 56 1017.1
20260502111832 74 329 3.0 6.0 0.00 0.00 0.00 58 1017.2
20260502111031 73 215 3.0 7.0 0.00 0.00 0.00 60 1017.2
20260502110532 73 230 1.0 7.0 0.00 0.00 0.00 58 1017.3
20260502110032 73 216 0.0 0.0 0.00 0.00 0.00 59 1017.3
20260502105826 73 236 0.0 0.0 0.00 0.00 0.00 59 1017.3
20260502105031 73 224 0.0 0.0 0.00 0.00 0.00 59 1017.3
20260502104530 73 202 0.0 0.0 0.00 0.00 0.00 57 1017.3
20260502104334 72 229 0.0 0.0 0.00 0.00 0.00 58 1017.3
20260502103530 71 239 0.0 0.0 0.00 0.00 0.00 57 1017.4
20260502103032 72 226 0.0 0.0 0.00 0.00 0.00 56 1017.4
20260502102532 72 238 0.0 0.0 0.00 0.00 0.00 55 1017.4
20260502102030 72 221 0.0 0.0 0.00 0.00 0.00 55 1017.5
20260502101528 72 217 0.0 0.0 0.00 0.00 0.00 56 1017.6
20260502101329 71 201 0.0 0.0 0.00 0.00 0.00 54 1017.6
20260502100526 70 223 0.0 0.0 0.00 0.00 0.00 54 1017.7
20260502091524 67 223 0.0 0.0 0.00 0.00 0.00 57 1018.0
20260502091024 67 193 0.0 0.0 0.00 0.00 0.00 56 1018.0
20260502090520 67 143 0.0 0.0 0.00 0.00 0.00 58 1018.1
20260502090312 66 226 0.0 0.0 0.00 0.00 0.00 58 1018.0
20260502071506 60 201 0.0 0.0 0.00 0.00 0.00 64 1018.2
20260502071009 59 232 0.0 0.0 0.00 0.00 0.00 65 1018.2
20260502070505 59 219 0.0 0.0 0.00 0.00 0.00 65 1018.2
20260502070307 59 213 0.0 0.0 0.00 0.00 0.00 64 1018.3
20260502065505 59 223 0.0 0.0 0.00 0.00 0.00 63 1018.2
20260502065008 59 232 0.0 0.0 0.00 0.00 0.00 63 1018.2
20260502064823 59 245 0.0 0.0 0.00 0.00 0.00 64 1018.1
20260502064008 59 226 0.0 0.0 0.00 0.00 0.00 64 1018.1
20260502063501 59 223 0.0 0.0 0.00 0.00 0.00 64 1018.2
20260502062955 58 234 0.0 0.0 0.00 0.00 0.00 67 1018.2
20260502062752 58 219 0.0 0.0 0.00 0.00 0.00 67 1018.3
20260502062245 57 132 0.0 0.0 0.00 0.00 0.00 68 1018.3
20260502061746 57 194 0.0 0.0 0.00 0.00 0.00 69 1018.3
20260502060944 57 123 0.0 0.0 0.00 0.00 0.00 69 1018.3
20260502060443 57 209 0.0 0.0 0.00 0.00 0.00 70 1018.4
20260502055943 56 138 0.0 0.0 0.00 0.00 0.00 72 1018.2
20260502055443 55 138 0.0 0.0 0.00 0.00 0.00 75 1018.2
20260502054940 54 138 0.0 0.0 0.00 0.00 0.00 78 1018.4
20260502054743 53 138 0.0 0.0 0.00 0.00 0.00 82 1018.2
20260502054244 51 138 0.0 0.0 0.00 0.00 0.00 85 1018.1
20260502053437 51 138 0.0 0.0 0.00 0.00 0.00 86 1018.1
20260502052932 50 138 0.0 0.0 0.00 0.00 0.00 88 1018.2
20260502052434 49 138 0.0 0.0 0.00 0.00 0.00 87 1018.1
20260502051932 48 138 0.0 0.0 0.00 0.00 0.00 87 1018.2
20260502051431 47 138 0.0 0.0 0.00 0.00 0.00 87 1018.1
20260502050931 47 138 0.0 0.0 0.00 0.00 0.00 87 1018.1
20260502050433 47 138 0.0 0.0 0.00 0.00 0.00 86 1018.1
20260502045931 47 138 0.0 0.0 0.00 0.00 0.00 86 1018.1
20260502045430 47 138 0.0 0.0 0.00 0.00 0.00 86 1018.2
20260502044928 47 138 0.0 0.0 0.00 0.00 0.00 86 1018.2
20260502044425 47 138 0.0 0.0 0.00 0.00 0.00 86 1018.1
20260502043920 47 138 0.0 0.0 0.00 0.00 0.00 86 1018.3
20260502043413 47 138 0.0 0.0 0.00 0.00 0.00 86 1018.2
20260502042905 47 138 0.0 0.0 0.00 0.00 0.00 85 1018.3
20260502042359 47 138 0.0 0.0 0.00 0.00 0.00 85 1018.3
20260502041853 47 138 0.0 0.0 0.00 0.00 0.00 85 1018.4
20260502041352 47 138 0.0 0.0 0.00 0.00 0.00 84 1018.4
20260502040852 47 138 0.0 0.0 0.00 0.00 0.00 84 1018.4
20260502040658 47 138 0.0 0.0 0.00 0.00 0.00 84 1018.3
20260502035849 47 138 0.0 0.0 0.00 0.00 0.00 84 1018.3
20260502035345 47 138 0.0 0.0 0.00 0.00 0.00 83 1018.4
20260502034846 47 138 0.0 0.0 0.00 0.00 0.00 82 1018.3
20260502034345 47 138 0.0 0.0 0.00 0.00 0.00 82 1018.4
20260502033844 48 138 0.0 0.0 0.00 0.00 0.00 82 1018.5
20260502033341 48 138 0.0 0.0 0.00 0.00 0.00 81 1018.6
20260502032840 48 138 0.0 0.0 0.00 0.00 0.00 81 1018.6
20260502032338 48 138 0.0 0.0 0.00 0.00 0.00 81 1018.7
20260502031837 48 138 0.0 0.0 0.00 0.00 0.00 81 1018.7
20260502031338 48 138 0.0 0.0 0.00 0.00 0.00 80 1018.7
20260502030836 48 138 0.0 0.0 0.00 0.00 0.00 80 1018.8
20260502030334 49 138 0.0 0.0 0.00 0.00 0.00 79 1018.8
20260502025831 49 138 0.0 0.0 0.00 0.00 0.00 79 1018.8
20260502025332 49 138 0.0 0.0 0.00 0.00 0.00 79 1018.9
20260502024829 49 138 0.0 0.0 0.00 0.00 0.00 79 1018.9
20260502024330 49 138 0.0 0.0 0.00 0.00 0.00 78 1019.0
20260502023823 49 138 0.0 0.0 0.00 0.00 0.00 78 1019.0
20260502023315 50 138 0.0 0.0 0.00 0.00 0.00 78 1019.0
20260502023121 50 138 0.0 0.0 0.00 0.00 0.00 78 1019.0
20260502022315 50 138 0.0 0.0 0.00 0.00 0.00 78 1019.0
20260502021816 50 138 0.0 0.0 0.00 0.00 0.00 77 1019.0
20260502021313 50 138 0.0 0.0 0.00 0.00 0.00 77 1019.0
20260502020815 50 138 0.0 0.0 0.00 0.00 0.00 76 1019.0
20260502020313 50 138 0.0 0.0 0.00 0.00 0.00 75 1019.1
20260502020121 51 138 0.0 0.0 0.00 0.00 0.00 75 1019.1
20260502015309 51 138 0.0 0.0 0.00 0.00 0.00 75 1019.1
20260502014806 51 138 0.0 0.0 0.00 0.00 0.00 75 1019.1
20260502014306 51 138 0.0 0.0 0.00 0.00 0.00 74 1019.1
20260502014108 51 138 0.0 0.0 0.00 0.00 0.00 73 1019.1
20260502013307 51 138 0.0 0.0 0.00 0.00 0.00 73 1019.2
20260502012812 52 138 0.0 0.0 0.00 0.00 0.00 72 1019.2
20260502012259 52 138 0.0 0.0 0.00 0.00 0.00 72 1019.3
20260502011805 52 138 0.0 0.0 0.00 0.00 0.00 72 1019.3
20260502011259 52 138 0.0 0.0 0.00 0.00 0.00 71 1019.3
20260502010757 52 138 0.0 0.0 0.00 0.00 0.00 71 1019.4
20260502010258 53 138 0.0 0.0 0.00 0.00 0.00 70 1019.4
20260502005758 53 138 0.0 0.0 0.00 0.00 0.00 69 1019.5
20260502005259 53 138 0.0 0.0 0.00 0.00 0.00 69 1019.6
20260502004756 53 138 0.0 0.0 0.00 0.00 0.00 68 1019.6
20260502004255 54 138 0.0 0.0 0.00 0.00 0.00 67 1019.7
20260502003755 54 136 0.0 0.0 0.00 0.00 0.00 66 1019.6
20260502003258 55 136 0.0 0.0 0.00 0.00 0.00 66 1019.7
20260502002755 55 136 0.0 0.0 0.00 0.00 0.00 65 1019.7
20260502002406 55 136 0.0 0.0 0.00 0.00 0.00 65 1019.8
20260502002341 55 136 0.0 0.0 0.00 0.00 0.00 65 1019.8
20260502001255 55 136 0.0 0.0 0.00 0.00 0.00 64 1019.8
20260502000755 55 136 0.0 0.0 0.00 0.00 0.00 64 1019.9
20260502000256 55 136 0.0 0.0 0.00 0.00 0.00 64 1020.0
20260501235753 55 136 0.0 0.0 0.00 0.00 0.00 65 1020.0
20260501235252 55 136 0.0 0.0 0.00 0.00 0.00 64 1020.0
20260501234748 55 136 0.0 0.0 0.00 0.00 0.00 64 1020.1
20260501234250 56 136 0.0 0.0 0.00 0.00 0.00 64 1020.1
20260501233748 56 136 0.0 0.0 0.00 0.00 0.00 64 1020.1
20260501233246 56 136 0.0 0.0 0.00 0.00 0.00 63 1020.1
20260501232743 56 136 0.0 0.0 0.00 0.00 0.00 62 1020.2
20260501232546 56 136 0.0 0.0 0.00 0.00 0.00 62 1020.1
20260501231740 57 136 0.0 0.0 0.00 0.00 0.00 62 1020.2
20260501231236 57 136 0.0 0.0 0.00 0.00 0.00 61 1020.3
20260501230736 57 136 0.0 0.0 0.00 0.00 0.00 61 1020.3
20260501230235 58 136 0.0 0.0 0.00 0.00 0.00 60 1020.3
20260501225737 58 136 0.0 0.0 0.00 0.00 0.00 60 1020.2
20260501225534 58 136 0.0 0.0 0.00 0.00 0.00 59 1020.2
20260501224732 58 137 0.0 0.0 0.00 0.00 0.00 59 1020.2
20260501224231 58 155 0.0 0.0 0.00 0.00 0.00 59 1020.2
20260501223729 58 145 0.0 0.0 0.00 0.00 0.00 60 1020.2
20260501223550 57 139 0.0 0.0 0.00 0.00 0.00 61 1020.1
20260501222732 57 135 0.0 1.0 0.00 0.00 0.00 62 1020.2
20260501222225 57 135 0.0 1.0 0.00 0.00 0.00 63 1020.2
20260501221719 57 135 0.0 0.0 0.00 0.00 0.00 64 1020.3
20260501221512 57 135 0.0 0.0 0.00 0.00 0.00 65 1020.3
20260501220704 58 135 0.0 0.0 0.00 0.00 0.00 64 1020.3
20260501220458 58 135 0.0 0.0 0.00 0.00 0.00 63 1020.4
20260501215950 58 135 0.0 0.0 0.00 0.00 0.00 63 1020.4
20260501215200 58 135 0.0 0.0 0.00 0.00 0.00 62 1020.4
20260501214947 59 135 0.0 0.0 0.00 0.00 0.00 62 1020.4
20260501214154 59 135 0.0 0.0 0.00 0.00 0.00 61 1020.4
20260501213942 59 135 0.0 0.0 0.00 0.00 0.00 60 1020.4
20260501213149 59 135 0.0 0.0 0.00 0.00 0.00 59 1020.4
20260501212647 59 135 0.0 0.0 0.00 0.00 0.00 59 1020.3
20260501212145 60 135 0.0 0.0 0.00 0.00 0.00 58 1020.4
20260501211643 60 135 0.0 0.0 0.00 0.00 0.00 59 1020.4
20260501211141 60 135 0.0 0.0 0.00 0.00 0.00 60 1020.5
20260501210635 60 135 0.0 0.0 0.00 0.00 0.00 60 1020.6
20260501210135 61 135 0.0 0.0 0.00 0.00 0.00 59 1020.5
20260501205635 61 135 0.0 0.0 0.00 0.00 0.00 58 1020.6
20260501205432 61 135 0.0 0.0 0.00 0.00 0.00 57 1020.6
20260501204632 62 135 0.0 0.0 0.00 0.00 0.00 55 1020.7
20260501204434 62 135 0.0 0.0 0.00 0.00 0.00 55 1020.6
20260501203633 63 135 0.0 0.0 0.00 0.00 0.00 54 1020.7
20260501203132 63 135 0.0 0.0 0.00 0.00 0.00 52 1020.7
20260501202631 64 135 0.0 0.0 0.00 0.00 0.00 50 1020.7
20260501202132 64 135 0.0 0.0 0.00 0.00 0.00 48 1020.8
20260501201628 64 135 0.0 0.0 0.00 0.00 0.00 47 1020.7
20260501201121 65 135 0.0 0.0 0.00 0.00 0.00 47 1020.8
20260501200621 65 134 0.0 0.0 0.00 0.00 0.00 47 1020.8
20260501200119 65 134 0.0 1.0 0.00 0.00 0.00 46 1020.8
20260501195620 65 133 0.0 2.0 0.00 0.00 0.00 46 1020.8
20260501195120 66 128 0.0 2.0 0.00 0.00 0.00 45 1020.8
20260501194618 66 134 0.0 1.0 0.00 0.00 0.00 45 1020.7
20260501194115 66 138 0.0 2.0 0.00 0.00 0.00 45 1020.8
20260501193613 67 138 1.0 2.0 0.00 0.00 0.00 44 1020.7
20260501193111 67 140 1.0 3.0 0.00 0.00 0.00 44 1020.7
20260501192609 67 143 1.0 3.0 0.00 0.00 0.00 43 1020.7
20260501192109 67 134 0.0 2.0 0.00 0.00 0.00 43 1020.7
20260501191856 68 142 0.0 2.0 0.00 0.00 0.00 43 1020.7
20260501191358 68 157 0.0 2.0 0.00 0.00 0.00 42 1020.7
20260501190606 68 144 1.0 2.0 0.00 0.00 0.00 41 1020.7
20260501190105 69 140 1.0 2.0 0.00 0.00 0.00 41 1020.7
20260501185900 69 150 1.0 2.0 0.00 0.00 0.00 40 1020.7
20260501185104 69 187 1.0 4.0 0.00 0.00 0.00 40 1020.7
20260501184605 69 196 1.0 4.0 0.00 0.00 0.00 40 1020.7
20260501184102 70 128 1.0 2.0 0.00 0.00 0.00 40 1020.7
20260501183602 70 131 1.0 4.0 0.00 0.00 0.00 39 1020.7
20260501183104 71 142 2.0 4.0 0.00 0.00 0.00 38 1020.7
20260501182605 71 116 1.0 4.0 0.00 0.00 0.00 37 1020.8
20260501182104 71 178 2.0 8.0 0.00 0.00 0.00 37 1020.7
20260501181606 71 159 2.0 8.0 0.00 0.00 0.00 36 1020.7